FW9002 Weather Reports


time (UTC)temp
C
wind
direction
speed
KPH
gust
KPH
rain 1hr
cm
rain 24hr
cm
rain mn
cm
humidity
%
barometer
mb
20260831054337 30 281 1.6 3.2 0.00 0.00 0.00 41 1013.1
20260831053836 30 235 0.0 0.0 0.00 0.00 0.00 41 1013.0
20260831053334 31 267 1.6 1.6 0.00 0.00 0.00 40 1013.2
20260831052829 31 290 1.6 1.6 0.00 0.00 0.00 40 1013.1
20260831052329 31 285 0.0 0.0 0.00 0.00 0.00 40 1012.9
20260831051827 31 271 3.2 3.2 0.00 0.00 0.00 40 1012.8
20260831051325 31 282 3.2 3.2 0.00 0.00 0.00 40 1012.9
20260831050821 31 297 1.6 3.2 0.00 0.00 0.00 40 1012.7
20260831050319 31 10 1.6 1.6 0.00 0.00 0.00 40 1012.8
20260831045814 31 345 1.6 1.6 0.00 0.00 0.00 40 1012.7
20260831045308 31 291 1.6 3.2 0.00 0.00 0.00 39 1012.8
20260831044803 31 318 0.0 1.6 0.00 0.00 0.00 39 1012.7
20260831044258 31 301 3.2 3.2 0.00 0.00 0.00 39 1012.7
20260831043754 31 289 4.8 8.0 0.00 0.00 0.00 39 1012.8
20260831043254 31 345 1.6 3.2 0.00 0.00 0.00 39 1012.7
20260831042749 31 351 4.8 8.0 0.00 0.00 0.00 39 1012.7
20260831042243 31 231 1.6 3.2 0.00 0.00 0.00 39 1012.9
20260831041739 31 306 3.2 4.8 0.00 0.00 0.00 39 1012.8
20260831041238 31 292 6.4 9.7 0.00 0.00 0.00 39 1012.7
20260831040733 31 299 1.6 4.8 0.00 0.00 0.00 39 1012.5
20260831040232 31 18 1.6 1.6 0.00 0.00 0.00 38 1012.6
20260831035731 31 4 4.8 9.7 0.00 0.00 0.00 38 1012.2
20260831035230 31 322 1.6 1.6 0.00 0.00 0.00 38 1012.2
20260831034729 31 275 1.6 3.2 0.00 0.00 0.00 38 1012.4
20260831034225 31 359 6.4 9.7 0.00 0.00 0.00 38 1012.4
20260831033720 31 286 4.8 9.7 0.00 0.00 0.00 37 1011.9
20260831033220 32 302 6.4 9.7 0.00 0.00 0.00 37 1012.2
20260831032716 32 330 4.8 4.8 0.00 0.00 0.00 37 1012.1
20260831032211 32 285 6.4 9.7 0.00 0.00 0.00 37 1011.9
20260831031710 32 317 3.2 3.2 0.00 0.00 0.00 37 1011.7
20260831031205 32 279 1.6 3.2 0.00 0.00 0.00 37 1011.8
20260831030704 32 303 6.4 9.7 0.00 0.00 0.00 37 1011.6
20260831030203 32 323 4.8 4.8 0.00 0.00 0.00 36 1011.5
20260831025701 33 311 9.7 11.3 0.00 0.00 0.00 35 1011.3
20260831025156 33 13 9.7 11.3 0.00 0.00 0.00 35 1011.3
20260831024653 34 305 6.4 9.7 0.00 0.00 0.00 34 1010.7
20260831024151 34 20 4.8 8.0 0.00 0.00 0.00 33 1010.7
20260831023650 34 307 4.8 8.0 0.00 0.00 0.00 33 1010.5
20260831023149 35 283 3.2 3.2 0.00 0.00 0.00 32 1010.3
20260831022645 35 296 3.2 1.6 0.00 0.00 0.00 32 1010.1
20260831022140 35 311 3.2 8.0 0.00 0.00 0.00 31 1010.3
20260831021639 35 262 3.2 3.2 0.00 0.00 0.00 31 1010.1
20260831021134 35 282 1.6 3.2 0.00 0.00 0.00 31 1010.2
20260831020630 35 283 1.6 3.2 0.00 0.00 0.00 31 1010.1
20260831020125 35 303 3.2 3.2 0.00 0.00 0.00 31 1010.1
20260831015621 35 283 1.6 1.6 0.00 0.00 0.00 30 1009.9
20260831015120 35 318 1.6 3.2 0.00 0.00 0.00 30 1010.0
20260831014615 35 299 4.8 4.8 0.00 0.00 0.00 30 1010.0
20260831014110 35 289 4.8 3.2 0.00 0.00 0.00 29 1009.7
20260831013607 35 289 3.2 4.8 0.00 0.00 0.00 29 1009.8
20260831013106 35 311 4.8 8.0 0.00 0.00 0.00 29 1009.9
20260831012606 35 300 3.2 4.8 0.00 0.00 0.00 29 1009.9
20260831012101 35 311 3.2 4.8 0.00 0.00 0.00 29 1009.8
20260831011600 35 304 3.2 3.2 0.00 0.00 0.00 29 1009.7
20260831011056 35 308 1.6 1.6 0.00 0.00 0.00 29 1009.8
20260831010551 35 259 1.6 3.2 0.00 0.00 0.00 29 1009.8
20260831010048 35 304 3.2 3.2 0.00 0.00 0.00 29 1009.8
20260831005542 36 309 1.6 3.2 0.00 0.00 0.00 29 1009.6
20260831005042 36 300 0.0 0.0 0.00 0.00 0.00 29 1009.7
20260831004538 36 318 4.8 8.0 0.00 0.00 0.00 28 1009.8
20260831004033 36 299 6.4 8.0 0.00 0.00 0.00 28 1009.5
20260831003530 37 302 8.0 11.3 0.00 0.00 0.00 27 1009.7
20260831003025 37 285 1.6 1.6 0.00 0.00 0.00 27 1009.8
20260831002524 37 284 8.0 11.3 0.00 0.00 0.00 27 1009.7
20260831002019 38 238 8.0 11.3 0.00 0.00 0.00 26 1009.7
20260831001515 38 241 4.8 4.8 0.00 0.00 0.00 26 1009.9
20260831001011 38 296 1.6 3.2 0.00 0.00 0.00 26 1009.7
20260831000507 38 301 1.6 1.6 0.00 0.00 0.00 26 1009.9
20260831000006 38 294 3.2 3.2 0.00 0.00 0.00 26 1009.7
20260830235501 38 320 8.0 9.7 0.00 0.00 0.00 26 1009.8
20260830234955 38 289 6.4 8.0 0.00 0.00 0.00 26 1009.7
20260830234450 38 12 1.6 1.6 0.00 0.00 0.00 26 1009.9
20260830233946 38 304 4.8 8.0 0.00 0.00 0.00 26 1009.7
20260830233441 38 339 1.6 1.6 0.00 0.00 0.00 26 1009.7
20260830232937 38 284 4.8 4.8 0.00 0.00 0.00 26 1009.9
20260830232433 38 280 4.8 3.2 0.00 0.00 0.00 26 1009.9
20260830231929 38 355 3.2 3.2 0.00 0.00 0.00 26 1010.0
20260830231424 38 314 6.4 8.0 0.00 0.00 0.00 26 1010.0
20260830230923 38 265 3.2 4.8 0.00 0.00 0.00 26 1010.1
20260830230419 38 281 4.8 4.8 0.00 0.00 0.00 26 1010.2
20260830225918 38 297 3.2 3.2 0.00 0.00 0.00 27 1010.3
20260830225414 39 301 4.8 3.2 0.00 0.00 0.00 25 1010.3
20260830224908 38 245 0.0 0.0 0.00 0.00 0.00 25 1010.6
20260830224407 38 277 3.2 1.6 0.00 0.00 0.00 25 1010.4
20260830223904 38 281 3.2 3.2 0.00 0.00 0.00 27 1010.7
20260830223400 38 333 4.8 8.0 0.00 0.00 0.00 26 1010.7
20260830222859 38 287 9.7 11.3 0.00 0.00 0.00 25 1011.1
20260830222355 38 303 4.8 8.0 0.00 0.00 0.00 26 1010.7
20260830221850 38 279 0.0 0.0 0.00 0.00 0.00 26 1011.1
20260830221347 38 7 4.8 4.8 0.00 0.00 0.00 26 1010.9
20260830220842 38 300 4.8 4.8 0.00 0.00 0.00 27 1011.4
20260830220342 38 271 4.8 4.8 0.00 0.00 0.00 27 1011.4
20260830215839 37 296 8.0 9.7 0.00 0.00 0.00 27 1011.4
20260830215339 37 270 3.2 3.2 0.00 0.00 0.00 28 1011.3
20260830214834 37 206 1.6 1.6 0.00 0.00 0.00 28 1011.5
20260830214330 37 292 4.8 8.0 0.00 0.00 0.00 28 1011.8
20260830213829 38 313 3.2 3.2 0.00 0.00 0.00 27 1011.6
20260830213324 38 274 6.4 8.0 0.00 0.00 0.00 27 1011.7
20260830212820 38 190 0.0 0.0 0.00 0.00 0.00 26 1011.8
20260830212316 38 287 4.8 4.8 0.00 0.00 0.00 26 1011.9
20260830211814 38 276 6.4 8.0 0.00 0.00 0.00 26 1011.8
20260830211309 38 354 4.8 4.8 0.00 0.00 0.00 26 1011.9
20260830210805 38 231 3.2 3.2 0.00 0.00 0.00 26 1012.0
20260830210304 38 307 1.6 1.6 0.00 0.00 0.00 26 1012.4
20260830205802 37 317 3.2 4.8 0.00 0.00 0.00 26 1012.4
20260830205305 37 140 1.6 3.2 0.00 0.00 0.00 26 1012.5
20260830204757 38 208 1.6 1.6 0.00 0.00 0.00 26 1012.7
20260830204256 38 282 4.8 4.8 0.00 0.00 0.00 26 1012.8
20260830203752 37 46 3.2 3.2 0.00 0.00 0.00 26 1012.9
20260830203248 37 61 1.6 1.6 0.00 0.00 0.00 26 1013.1
20260830202747 37 170 1.6 1.6 0.00 0.00 0.00 27 1013.0
20260830202243 37 266 3.2 3.2 0.00 0.00 0.00 27 1013.4
20260830201742 37 255 3.2 3.2 0.00 0.00 0.00 27 1013.3
20260830201237 37 352 4.8 8.0 0.00 0.00 0.00 28 1013.5
20260830200733 37 58 3.2 3.2 0.00 0.00 0.00 27 1013.4
20260830200232 37 289 4.8 4.8 0.00 0.00 0.00 28 1013.5
20260830195727 37 277 4.8 4.8 0.00 0.00 0.00 28 1013.5
20260830195226 37 243 4.8 3.2 0.00 0.00 0.00 29 1013.9
20260830194724 36 39 3.2 3.2 0.00 0.00 0.00 29 1013.6
20260830194219 36 303 3.2 4.8 0.00 0.00 0.00 29 1013.5
20260830193714 36 235 6.4 8.0 0.00 0.00 0.00 30 1014.1
20260830193208 37 308 3.2 3.2 0.00 0.00 0.00 30 1013.9
20260830192704 36 261 1.6 1.6 0.00 0.00 0.00 30 1014.1
20260830192159 36 138 4.8 8.0 0.00 0.00 0.00 29 1014.1
20260830191655 36 6 4.8 4.8 0.00 0.00 0.00 31 1014.2
20260830191149 35 148 3.2 3.2 0.00 0.00 0.00 31 1014.4
20260830190644 35 293 4.8 4.8 0.00 0.00 0.00 32 1014.3
20260830190139 35 251 11.3 11.3 0.00 0.00 0.00 31 1014.5
20260830185638 36 239 8.0 11.3 0.00 0.00 0.00 31 1014.6
20260830185134 36 214 9.7 14.5 0.00 0.00 0.00 31 1014.5
20260830184633 36 289 1.6 3.2 0.00 0.00 0.00 31 1014.6
20260830184128 35 277 3.2 4.8 0.00 0.00 0.00 32 1014.6
20260830183628 35 238 6.4 8.0 0.00 0.00 0.00 33 1014.6
20260830183123 35 130 4.8 8.0 0.00 0.00 0.00 32 1014.9
20260830182619 35 198 3.2 3.2 0.00 0.00 0.00 34 1014.9
20260830182115 35 114 3.2 3.2 0.00 0.00 0.00 34 1015.2
20260830181611 35 125 8.0 9.7 0.00 0.00 0.00 33 1015.0
20260830181110 35 176 1.6 1.6 0.00 0.00 0.00 33 1015.3
20260830180609 35 72 3.2 1.6 0.00 0.00 0.00 34 1015.2
20260830180109 35 134 4.8 4.8 0.00 0.00 0.00 34 1015.2
20260830175608 35 138 1.6 1.6 0.00 0.00 0.00 34 1015.3
20260830175104 35 167 1.6 1.6 0.00 0.00 0.00 34 1015.0
20260830174559 35 181 3.2 3.2 0.00 0.00 0.00 34 1015.2
20260830174054 35 213 1.6 1.6 0.00 0.00 0.00 35 1015.3
20260830173549 34 98 1.6 1.6 0.00 0.00 0.00 34 1015.3
20260830173044 33 111 6.4 8.0 0.00 0.00 0.00 35 1015.5
20260830172541 33 117 1.6 1.6 0.00 0.00 0.00 36 1015.5
20260830172037 33 153 1.6 1.6 0.00 0.00 0.00 37 1015.5
20260830171532 33 136 3.2 3.2 0.00 0.00 0.00 36 1015.7
20260830171032 33 113 0.0 0.0 0.00 0.00 0.00 38 1015.7
20260830170526 32 104 4.8 4.8 0.00 0.00 0.00 38 1015.6
20260830170026 32 111 3.2 3.2 0.00 0.00 0.00 38 1015.6
20260830165521 33 136 3.2 3.2 0.00 0.00 0.00 38 1015.5
20260830165017 33 150 3.2 4.8 0.00 0.00 0.00 37 1015.6
20260830164513 33 119 1.6 1.6 0.00 0.00 0.00 37 1015.7
20260830164009 33 130 3.2 4.8 0.00 0.00 0.00 37 1015.5
20260830163506 32 158 3.2 3.2 0.00 0.00 0.00 39 1015.4
20260830163004 32 140 4.8 4.8 0.00 0.00 0.00 39 1015.5
20260830162501 32 181 1.6 1.6 0.00 0.00 0.00 39 1015.8
20260830162000 32 184 0.0 1.6 0.00 0.00 0.00 39 1015.4
20260830161455 32 76 3.2 3.2 0.00 0.00 0.00 40 1015.8
20260830160950 31 151 3.2 3.2 0.00 0.00 0.00 41 1015.6
20260830160447 31 161 1.6 1.6 0.00 0.00 0.00 42 1015.8
20260830155941 31 174 3.2 4.8 0.00 0.00 0.00 41 1015.9
20260830155438 31 126 1.6 1.6 0.00 0.00 0.00 42 1015.9
20260830154932 31 167 3.2 3.2 0.00 0.00 0.00 43 1015.7
20260830154428 31 127 1.6 1.6 0.00 0.00 0.00 43 1015.8
20260830153924 31 188 4.8 4.8 0.00 0.00 0.00 42 1015.7
20260830153420 30 207 4.8 4.8 0.00 0.00 0.00 43 1015.8
20260830152919 30 188 3.2 3.2 0.00 0.00 0.00 44 1015.8
20260830152414 30 217 4.8 3.2 0.00 0.00 0.00 45 1015.9
20260830151908 30 170 1.6 1.6 0.00 0.00 0.00 44 1015.6
20260830151407 30 208 3.2 4.8 0.00 0.00 0.00 43 1015.5
20260830150903 30 145 1.6 1.6 0.00 0.00 0.00 43 1015.6
20260830150402 30 138 0.0 0.0 0.00 0.00 0.00 45 1015.6
20260830145856 30 132 1.6 1.6 0.00 0.00 0.00 46 1015.9
20260830145351 29 102 0.0 0.0 0.00 0.00 0.00 49 1015.6
20260830144846 29 102 0.0 0.0 0.00 0.00 0.00 48 1015.8
20260830144343 28 102 0.0 0.0 0.00 0.00 0.00 50 1015.7
20260830143838 28 102 0.0 0.0 0.00 0.00 0.00 50 1015.7
20260830143338 28 102 0.0 0.0 0.00 0.00 0.00 50 1015.7
20260830142832 28 102 0.0 0.0 0.00 0.00 0.00 51 1015.9
20260830142327 28 102 0.0 0.0 0.00 0.00 0.00 50 1015.7
20260830141822 28 102 0.0 0.0 0.00 0.00 0.00 50 1015.7
20260830141317 27 102 0.0 0.0 0.00 0.00 0.00 52 1015.9
20260830140812 27 103 0.0 0.0 0.00 0.00 0.00 53 1015.7
20260830140307 27 103 0.0 0.0 0.00 0.00 0.00 54 1015.9
20260830135801 27 103 0.0 0.0 0.00 0.00 0.00 53 1016.0
20260830135257 27 103 0.0 0.0 0.00 0.00 0.00 54 1015.9
20260830134752 27 102 0.0 0.0 0.00 0.00 0.00 54 1016.0
20260830134247 27 102 0.0 0.0 0.00 0.00 0.00 53 1015.7
20260830133743 27 102 0.0 0.0 0.00 0.00 0.00 52 1015.9
20260830133238 27 103 0.0 0.0 0.00 0.00 0.00 52 1015.9
20260830132734 27 103 0.0 0.0 0.00 0.00 0.00 52 1016.1
20260830132229 27 103 0.0 0.0 0.00 0.00 0.00 53 1015.7
20260830131728 27 103 0.0 0.0 0.00 0.00 0.00 53 1015.8
20260830131229 27 103 0.0 0.0 0.00 0.00 0.00 53 1015.7
20260830130724 27 103 0.0 0.0 0.00 0.00 0.00 52 1015.7
20260830130224 27 103 0.0 0.0 0.00 0.00 0.00 51 1015.7
20260830125718 27 103 0.0 0.0 0.00 0.00 0.00 50 1015.5
20260830125213 27 103 0.0 0.0 0.00 0.00 0.00 50 1015.5
20260830124710 27 132 0.0 0.0 0.00 0.00 0.00 50 1015.6
20260830124206 27 128 1.6 1.6 0.00 0.00 0.00 50 1015.4
20260830123703 27 130 1.6 1.6 0.00 0.00 0.00 50 1015.4
20260830123159 27 141 3.2 1.6 0.00 0.00 0.00 50 1015.4
20260830122656 27 140 3.2 4.8 0.00 0.00 0.00 50 1015.2
20260830122151 27 127 0.0 0.0 0.00 0.00 0.00 50 1015.6
20260830121647 27 128 1.6 1.6 0.00 0.00 0.00 50 1015.4
20260830121146 28 125 3.2 3.2 0.00 0.00 0.00 50 1015.5
20260830120641 28 116 0.0 0.0 0.00 0.00 0.00 49 1015.4
20260830120137 28 116 0.0 0.0 0.00 0.00 0.00 48 1015.2
20260830115633 28 142 3.2 3.2 0.00 0.00 0.00 48 1015.0
20260830115128 28 137 3.2 4.8 0.00 0.00 0.00 48 1014.8
20260830114625 28 131 6.4 4.8 0.00 0.00 0.00 47 1014.7
20260830114125 28 122 3.2 3.2 0.00 0.00 0.00 46 1014.7
20260830113620 28 101 1.6 1.6 0.00 0.00 0.00 45 1014.6
20260830113115 28 116 6.4 8.0 0.00 0.00 0.00 45 1014.4
20260830112612 28 180 9.7 12.9 0.00 0.00 0.00 44 1014.4
20260830112107 28 167 3.2 4.8 0.00 0.00 0.00 44 1014.4
20260830111603 28 84 1.6 4.8 0.00 0.00 0.00 43 1014.9
20260830111059 28 98 0.0 0.0 0.00 0.00 0.00 43 1014.8
20260830110558 28 112 1.6 1.6 0.00 0.00 0.00 42 1014.7
20260830110054 28 158 0.0 0.0 0.00 0.00 0.00 42 1014.7
20260830105549 29 194 1.6 1.6 0.00 0.00 0.00 42 1014.7
20260830105045 29 154 1.6 1.6 0.00 0.00 0.00 42 1014.7
20260830104541 29 198 4.8 4.8 0.00 0.00 0.00 41 1014.7
20260830104037 29 258 3.2 3.2 0.00 0.00 0.00 41 1014.6
20260830103532 28 159 1.6 1.6 0.00 0.00 0.00 41 1014.7
20260830103031 28 143 0.0 0.0 0.00 0.00 0.00 42 1014.4
20260830102531 28 127 0.0 0.0 0.00 0.00 0.00 42 1014.5
20260830102027 28 134 1.6 1.6 0.00 0.00 0.00 42 1014.3
20260830101522 28 143 4.8 4.8 0.00 0.00 0.00 42 1014.2
20260830101021 28 106 1.6 1.6 0.00 0.00 0.00 43 1014.2
20260830100516 28 115 0.0 0.0 0.00 0.00 0.00 43 1014.0
20260830100015 28 120 0.0 0.0 0.00 0.00 0.00 42 1013.9
20260830095510 29 122 0.0 0.0 0.00 0.00 0.00 42 1013.9
20260830095006 29 111 1.6 3.2 0.00 0.00 0.00 41 1013.8
20260830094502 29 101 4.8 4.8 0.00 0.00 0.00 41 1013.8
20260830093957 30 145 4.8 9.7 0.00 0.00 0.00 40 1013.6
20260830093452 30 122 4.8 8.0 0.00 0.00 0.00 40 1013.6
20260830092949 30 115 4.8 8.0 0.00 0.00 0.00 39 1013.4
20260830092444 30 95 4.8 4.8 0.00 0.00 0.00 39 1013.5
20260830091940 30 82 3.2 3.2 0.00 0.00 0.00 39 1013.5
20260830091440 30 117 3.2 3.2 0.00 0.00 0.00 39 1013.5
20260830090939 30 124 4.8 4.8 0.00 0.00 0.00 40 1013.3
20260830090434 30 120 3.2 3.2 0.00 0.00 0.00 40 1013.3
20260830085930 30 125 3.2 3.2 0.00 0.00 0.00 40 1013.1
20260830085424 30 117 4.8 4.8 0.00 0.00 0.00 40 1013.3
20260830084920 29 139 3.2 3.2 0.00 0.00 0.00 41 1013.2
20260830084415 29 154 3.2 3.2 0.00 0.00 0.00 43 1013.2
20260830083910 29 196 1.6 1.6 0.00 0.00 0.00 43 1013.3
20260830083406 30 133 0.0 0.0 0.00 0.00 0.00 43 1013.3
20260830082905 29 151 3.2 3.2 0.00 0.00 0.00 43 1013.2
20260830082401 30 175 3.2 3.2 0.00 0.00 0.00 43 1013.3
20260830081856 29 195 6.4 8.0 0.00 0.00 0.00 43 1013.3
20260830081351 29 240 3.2 4.8 0.00 0.00 0.00 43 1013.3
20260830080850 30 245 3.2 3.2 0.00 0.00 0.00 43 1013.0
20260830080347 30 248 6.4 9.7 0.00 0.00 0.00 43 1013.0
20260830075845 30 146 1.6 1.6 0.00 0.00 0.00 41 1012.9
20260830075341 30 130 4.8 8.0 0.00 0.00 0.00 41 1013.1
20260830074836 30 135 8.0 8.0 0.00 0.00 0.00 41 1012.8
20260830074332 30 155 6.4 8.0 0.00 0.00 0.00 41 1013.0
20260830073828 30 155 8.0 12.9 0.00 0.00 0.00 41 1013.1
20260830073323 30 143 0.0 1.6 0.00 0.00 0.00 41 1012.8
20260830072818 30 151 4.8 4.8 0.00 0.00 0.00 41 1013.0
20260830072314 30 68 4.8 8.0 0.00 0.00 0.00 41 1012.5
20260830071813 30 114 6.4 8.0 0.00 0.00 0.00 42 1012.5
20260830071308 30 57 4.8 8.0 0.00 0.00 0.00 42 1012.6
20260830070807 30 103 3.2 4.8 0.00 0.00 0.00 42 1012.6
20260830070301 30 78 6.4 11.3 0.00 0.00 0.00 41 1012.4
20260830065801 30 95 3.2 3.2 0.00 0.00 0.00 41 1012.6
20260830065255 30 121 4.8 8.0 0.00 0.00 0.00 42 1012.6
20260830064753 30 114 4.8 8.0 0.00 0.00 0.00 42 1012.4
20260830064244 29 111 3.2 3.2 0.00 0.00 0.00 43 1012.5
20260830063744 29 96 3.2 3.2 0.00 0.00 0.00 44 1012.7
20260830063243 29 114 1.6 1.6 0.00 0.00 0.00 44 1012.7
20260830062737 29 117 4.8 8.0 0.00 0.00 0.00 44 1012.9
20260830062232 29 54 4.8 4.8 0.00 0.00 0.00 44 1012.8
20260830061732 29 98 3.2 3.2 0.00 0.00 0.00 44 1013.1
20260830061228 29 117 4.8 4.8 0.00 0.00 0.00 45 1012.7
20260830060725 29 90 3.2 3.2 0.00 0.00 0.00 44 1012.9
20260830060221 29 106 3.2 3.2 0.00 0.00 0.00 44 1013.0
20260830055715 30 118 6.4 9.7 0.00 0.00 0.00 42 1012.9
20260830055212 30 139 1.6 1.6 0.00 0.00 0.00 41 1013.0